Flag for U.S.A. Weather past 2 weeks in Fullerton, California, U.S.A.

Now
63 °F

Passing clouds.


Feels Like: 63 °F
Forecast: 53 / 74 °F
Wind: 3 mph from North

Location: Fullerton Municipal Airport


UV Index: 5 (Moderate)

Visibility: 10 mi


Pressure: 29.85 "Hg

Humidity: 65%

Dew point: 51 °F

Location of FullertonLocation

Historic Weather in Fullerton

°F

Fullerton temperature yesterday

Maximum temperature yesterday: 77 °F (at 3:53 PM)
Minimum temperature yesterday: 58 °F (at 4:53 AM)
Average temperature yesterday: 65 °F

Past Weeks' High & Low Weather Summary

 TemperatureHumidityPressure
High94 °F (Apr 8, 2:53 PM)90% (Apr 2, 6:53 AM)30.14 "Hg (Apr 2, 6:53 AM)
Low47 °F (Apr 3, 6:53 AM)10% (Apr 8, 3:53 PM)29.81 "Hg (Apr 15, 5:53 PM)
Average64 °F55%29.98 "Hg
* Reported Apr 1 8:53 AM — Apr 16 8:53 AM, Fullerton, Weather by CustomWeather, © 2014

Note: Actual official high and low records may vary slightly from our data, if they occured in-between our weather recording intervals... More about our weather records

Advertising

Historic Weather Conditions — Data for Previous 24 hours

 ConditionsComfort  
Time TempWeatherWind HumidityBarometerVisibility
8:53 AM
Apr 16
61 °FOvercast.No wind70%29.86 "Hg10 mi
7:53 AM59 °FOvercast.6 mph75%29.85 "Hg10 mi
6:53 AM59 °FOvercast.7 mph75%29.84 "Hg10 mi
5:53 AM59 °FOvercast.3 mph75%29.83 "Hg10 mi
5:00 AM58 °FOvercast.5 mph78%29.84 "Hg10 mi
3:53 AM59 °FOvercast.5 mph75%29.85 "Hg10 mi
2:53 AM59 °FOvercast.No wind78%29.85 "Hg10 mi
1:53 AM58 °FOvercast.No wind81%29.86 "Hg10 mi
12:53 AM58 °FOvercast.3 mph81%29.88 "Hg7 mi
11:53 PM
Apr 15
58 °FClear.3 mph84%29.87 "Hg6 mi
10:53 PM59 °FClear.5 mph81%29.87 "Hg6 mi
9:53 PM60 °FClear.No wind78%29.86 "Hg8 mi
8:53 PM62 °FClear.5 mph65%29.86 "Hg10 mi
7:53 PM64 °FSunny.5 mph65%29.83 "Hg10 mi
6:53 PM68 °FSunny.9 mph55%29.81 "Hg10 mi
5:53 PM76 °FSunny.9 mph39%29.81 "Hg10 mi
4:53 PM77 °FSunny.7 mph39%29.82 "Hg10 mi
3:53 PM77 °FSunny.7 mph42%29.83 "Hg10 mi
2:53 PM76 °FSunny.7 mph45%29.87 "Hg10 mi
1:53 PM73 °FSunny.8 mph50%29.89 "Hg10 mi
12:53 PM73 °FSunny.6 mph50%29.90 "Hg6 mi
11:53 AM71 °FSunny.5 mph55%29.94 "Hg5 mi
10:53 AM69 °FSunny.8 mph57%29.96 "Hg7 mi
Weather by CustomWeather, © 2014

See weather overview